Location: Vallejo Observatory
(38.1221°N, 122.2109°W)
Time: 20:27:44
(UTC-07:00)

Daily predictions for brighter satellites

Satellite Brightness Start Highest point End
(mag) Time Altitude Azimuth Time Altitude Azimuth Time Altitude Azimuth
NOSS 3-2 (A) 3.5 19:10:00 10° SSW 19:15:55 65° ESE 19:22:20 10° NE
Cosmos 1378 3.7 19:17:04 10° N 19:20:32 36° ENE 19:24:00 10° SSE
Cosmos 1953 3.6 19:18:52 10° SE 19:21:49 20° E 19:24:47 10° NE
Cosmos 1441 Rocket 3.7 19:21:00 10° NNW 19:24:43 63° W 19:28:23 10° S
Cosmos 1805 4.4 19:23:06 10° SE 19:26:10 22° E 19:29:14 10° NE
Cosmos 2219 Rocket 4.4 19:22:53 10° WSW 19:27:40 28° WNW 19:32:32 10° N
SAR-Lupe-4 3.6 19:24:29 10° SSE 19:27:58 56° ENE 19:31:29 10° N
Meteor 1-28 Rocket 3.4 19:24:29 10° NNE 19:28:04 45° E 19:31:38 10° S
Abrixas 4.0 19:27:24 10° S 19:29:41 20° SE 19:31:53 10° E
Okean 3 Rocket 3.6 19:26:30 10° N 19:31:04 78° E 19:35:35 10° S
ATLAS CENTAUR R/B 3.3 19:27:15 10° SSW 19:31:34 73° SE 19:44:57 10° NE
Resurs 01 Rocket 2.4 19:29:33 10° SE 19:33:29 31° ENE 19:37:25 10° N
MSX 4.4 19:29:30 10° S 19:35:10 63° WSW 19:40:54 10° NNW
Cosmos 2278 Rocket 3.3 19:31:04 10° NNW 19:36:30 49° WSW 19:41:53 10° S
Cosmos 1707 3.9 19:35:20 10° NNW 19:39:03 47° W 19:42:45 10° SSW
Meteor 1-22 Rocket 4.2 19:37:09 10° S 19:42:32 84° W 19:47:50 10° N
Cosmos 2297 3.7 19:37:08 10° NNW 19:42:50 89° ENE 19:48:27 10° SSE
Helios 1A 3.6 19:39:35 10° SE 19:43:24 34° ENE 19:47:13 10° N
Spot 2 Rocket 3.8 19:39:56 10° SE 19:44:43 46° ENE 19:49:31 10° N
Cosmos 1470 4.4 19:49:04 15° E 19:49:04 15° E 19:51:08 10° NE
CENTAUR R/B 3.5 19:45:58 10° SSE 19:50:27 22° ESE 19:55:14 10° ENE
Cosmos 2056 Rocket 4.0 19:46:49 10° NNW 19:52:13 66° WSW 19:57:33 10° S
Meteor 1-24 Rocket 4.0 19:47:03 10° NNW 19:52:39 71° W 19:58:01 10° S
GPS 2-04 Rocket1 3.8 19:49:47 10° SSW 19:52:39 24° SSE 19:54:14 18° ESE
SJ-6B 2.9 19:48:44 10° S 19:52:41 82° W 19:56:45 10° NNW
Cosmos 1943 4.4 19:50:01 10° SE 19:53:52 19° E 19:57:44 10° NE
Cosmos 2369 Rocket 3.8 19:50:39 10° NNE 19:54:14 17° NE 19:56:06 15° ENE
NOSS 3-2 (C) 3.5 19:48:15 10° SSW 19:54:17 85° NW 20:00:52 10° NNE
Cosmos 1603 3.8 19:52:14 10° S 19:57:45 52° ESE 20:03:18 10° NNE
Cosmos 724 4.3 19:52:40 10° SSW 19:58:29 64° ESE 20:04:28 10° NE
HJ-1C 3.3 19:57:04 10° SSE 20:00:23 62° ENE 20:03:43 10° N
Cosmos 1758 3.2 19:59:58 10° S 20:04:02 70° E 20:08:07 10° NNE
ISS -2.4 20:02:54 10° SSW 20:05:45 28° SE 20:06:00 28° ESE
Nadezhda 4 Rocket 4.2 20:00:04 10° N 20:06:06 47° ENE 20:12:01 10° SSE
Spot 1 4.2 20:03:00 10° SSE 20:07:48 89° WSW 20:12:21 10° NNW
Cosmos 1674 3.6 20:08:14 10° NNE 20:11:35 27° ENE 20:11:35 27° ENE
BREEZE-M DEB (TANK) 3.9 20:09:28 10° W 20:11:46 27° SSW 20:16:32 10° SSE
Cosmos 1092 Rocket 4.4 20:07:23 10° N 20:13:07 38° ENE 20:17:09 18° SE
Meteor 2-12 Rocket 4.4 20:08:47 10° S 20:14:55 76° E 20:21:04 10° N
OAO 3 Rocket 3.3 20:11:33 10° W 20:16:14 61° S 20:18:26 30° ESE
ASTRO E2 4.0 20:13:08 10° WSW 20:16:41 30° S 20:18:06 23° SSE
Cosmos 1766 Rocket 3.7 20:15:13 10° NNW 20:19:35 72° W 20:23:54 10° S
FengYun 1-2 T 4.1 20:14:07 10° SSE 20:19:37 77° ENE 20:25:07 10° N
In-Cosmos 22 4.4 20:15:06 10° N 20:20:54 81° W 20:26:38 10° S
Meteor 1-29 3.0 20:17:26 10° N 20:20:57 81° WNW 20:24:25 10° SSW
ALOS 2.2 20:21:06 17° SSE 20:24:38 62° ENE 20:29:15 10° N
Helios 1B rocket 2.9 20:21:20 10° N 20:25:25 62° WNW 20:29:28 10° SSW
Cosmos 1634 Rocket 4.3 20:20:43 10° SSE 20:26:27 40° E 20:32:11 10° NNE
USA 215 3.5 20:23:39 10° NE 20:30:10 72° NW 20:36:39 10° WSW
CZ-4B DEB 2.6 20:30:15 70° E 20:30:18 70° ENE 20:33:33 10° N
ERS-1 Rocket 4.3 20:35:10 22° NE 20:35:10 22° NE 20:38:04 10° NNE
Cosmos-2242 3.7 20:30:23 10° SSW 20:34:40 57° W 20:39:00 10° N
SeaSat 1 2.6 20:32:22 10° NE 20:37:09 48° ESE 20:41:54 10° S
ATLAS 5 CENTAUR R/B 3.1 20:33:27 10° WSW 20:37:57 40° NW 20:42:49 10° NNE
Meteor 1-21 Rocket 4.3 20:34:07 10° NNW 20:39:40 74° W 20:45:10 10° S
Atlas Centaur 2 4.4 20:37:18 10° W 20:44:14 28° SSW 20:48:45 17° SSE
CZ-2D R/B 3.1 20:44:39 73° SSE 20:45:00 86° ENE 20:48:55 10° N
Cosmos 1452 Rocket 4.5 20:43:42 10° NNW 20:48:43 47° WSW 20:53:42 10° S
Cosmos 1544 4.4 20:46:50 10° SSW 20:50:22 41° W 20:53:57 10° N
Cosmos 1842 Rocket 3.5 20:46:06 10° S 20:50:25 84° W 20:54:48 10° N
Cosmos 1500 Rocket 3.4 20:48:47 10° N 20:53:15 89° E 20:53:45 70° S
SL-8 R/B 3.8 20:52:29 10° WSW 20:57:15 70° NNW 20:58:06 56° NNE
H-2A R/B 3.2 21:00:42 59° WSW 21:00:48 60° W 21:04:39 10° NNW
Resurs 01 Rocket 4.0 21:06:34 10° SW 21:09:57 21° W 21:13:23 10° NW
Gbstr 26 Del rocket 3.5 21:07:27 10° SW 21:11:10 63° SW 21:11:10 63° SW
Cosmos 1627 Rocket 4.3 21:07:43 10° N 21:13:56 75° E 21:14:18 73° ESE
Cosmos 839 Rocket 4.0 21:13:34 10° NNW 21:21:06 72° ENE 21:21:23 71° ENE
Envisat 4.3 21:36:45 32° N 21:36:45 32° N 21:39:27 10° N
Cosmos 1943 3.8 21:31:56 10° SW 21:37:25 53° WNW 21:42:56 10° NNE
Cosmos 2369 Rocket 2.6 21:33:11 10° NNW 21:37:55 60° NW 21:37:55 60° NW
CENTAUR R/B 3.0 21:34:28 10° SW 21:40:23 58° NW 21:47:06 10° NNE
Cosmos 1943 Rocket 3.5 21:36:46 10° NNW 21:39:43 30° N 21:39:43 30° N
CZ-3A R/B 4.4 21:08:04 10° SSW 21:51:30 70° SE 21:53:14 61° E
